www.pogodaiklimat.ru

Погода и климат >> Архив погоды >> Россия >> Якутия >> Агаякан


ПОГОДА в Агаякане

  • Прогноз погоды в Агаякане
  • Монитор погоды в Агаякане
  • Климат города

АРХИВ ПОГОДЫ в Агаякане

Время (UTC), дата Ветер
(напр.,м/с)
 
Видим.   Явления Облачность Т
(С)
Тd
(С)
f
(%)
Тe
(С)
Тes
(С)
Комфортность P
(гПа)
Po
(гПа)
Тmin
(С)
Tmax
(С)
R
(мм)
R24
(мм)
S
(см)
00 12.12 штиль 0 50 км 4/0
[Cs]
-47.8 -48.5 92 -48 -48 опасность
обморожения
1036.7 923.4
03 12.12 штиль 0 50 км ясно -45.3 -46.1 92 -45 -45 опасность
обморожения
1036.7 923.7
06 12.12 штиль 0 50 км ясно -46.1 -47.0 90 -46 -46 опасность
обморожения
1036.6 923.3
09 12.12 штиль 0 20 км ясно -48.0 -48.5 94 -48 -48 опасность
обморожения
1037.6 923.3 -45.3
12 12.12 штиль 0 20 км ясно -48.4 -48.5 99 -48 -48 опасность
обморожения
1037.9 923.4
15 12.12 штиль 0 20 км ясно -47.7 -48.5 91 -48 -48 опасность
обморожения
1037.9 923.6
18 12.12 штиль 0 20 км ясно -48.0 -48.5 94 -48 -48 опасность
обморожения
1037.6 923.3
21 12.12 штиль 0 20 км ясно -48.2 -48.5 97 -48 -48 опасность
обморожения
1037.6 923.2 -48.7 34
00 13.12 штиль 0 50 км 4/0
[As trans]
-47.3 -47.5 98 -47 -47 опасность
обморожения
1037.3 923.4
03 13.12 штиль 0 50 км ясно -45.7 -47.0 87 -46 -46 опасность
обморожения
1035.0 922.3
06 13.12 штиль 0 50 км ясно -46.3 -47.0 92 -46 -46 опасность
обморожения
1034.5 921.3
09 13.12 штиль 0 20 км ясно -46.7 -47.5 91 -47 -47 опасность
обморожения
1035.4 921.9 -45.7
12 13.12 штиль 0 20 км ясно -48.0 -48.5 94 -48 -48 опасность
обморожения
1034.6 920.6
15 13.12 штиль 0 20 км ясно -47.6 -48.5 90 -48 -48 опасность
обморожения
1034.0 920.3
18 13.12 штиль 0 20 км ясно -47.1 -47.5 96 -47 -47 опасность
обморожения
1033.6 920.1
21 13.12 штиль 0 20 км ясно -48.2 -48.5 97 -48 -48 опасность
обморожения
1033.0 919.1 -48.6 34
00 14.12 штиль 0 50 км 6/0
[Ac As]
-47.2 -47.5 97 -47 -47 опасность
обморожения
1031.4 918.2
03 14.12 штиль 0 20 км 6/0
[Ac As]
-44.3 -45.3 90 -44 -44 опасность
обморожения
1039.3 917.5
06 14.12 штиль 0 50 км 4/0
[As trans]
-44.8 -46.1 87 -45 -45 опасность
обморожения
1027.8 916.1
09 14.12 штиль 0 20 км ясно -48.8 -49.7 90 -49 -49 опасность
обморожения
1029.9 916.1 -44.3
12 14.12 штиль 0 20 км ясно -50.3 -51.0 92 -50 -50 опасность
обморожения
1031.5 915.7
15 14.12 штиль 0 20 км ясно -51.8 -52.6 91 -52 -52 опасность
обморожения
1030.7 915.4
18 14.12 штиль 0 20 км ясно -53.0 -52.6 100 -53 -53 опасность
обморожения
1030.8 914.8
21 14.12 штиль 0 20 км ясно -51.6 -52.6 89 -52 -52 опасность
обморожения
1030.8 915.5 -53.2 34
00 15.12 штиль 0 50 км 4/0
[Cs]
-50.2 -51.0 91 -50 -50 опасность
обморожения
1030.3 915.7
03 15.12 штиль 0 50 км 4/0
[Cs]
-48.5 -49.0 94 -49 -48 опасность
обморожения
1029.6 915.9
06 15.12 штиль 0 50 км 4/0
[Cs]
-47.6 -49.0 85 -48 -48 опасность
обморожения
1028.5 915.4
09 15.12 штиль 0 20 км 4/0
[Cs]
-48.1 -49.0 90 -48 -48 опасность
обморожения
1029.3 915.8
12 15.12 штиль 0 20 км ясно -48.8 -49.7 90 -49 -49 опасность
обморожения
1028.8 915.1
15 15.12 штиль 0 20 км ясно -48.5 -48.5 100 -49 -49 опасность
обморожения
1029.0 915.4
18 15.12 штиль 0 20 км ясно -49.1 -49.7 93 -49 -49 опасность
обморожения
1030.4 916.4
21 15.12 штиль 0 20 км ясно -48.4 -48.5 99 -48 -48 опасность
обморожения
1028.8 915.3 -49.4 34
00 16.12 штиль 0 50 км 6/0
[Cs]
-46.3 -46.5 98 -46 -46 опасность
обморожения
1026.7 914.4
03 16.12 штиль 0 50 км 6/0
[Cs]
-44.1 -45.3 88 -44 -44 опасность
обморожения
1025.7 914.5
06 16.12 штиль 0 50 км 4/0
[]
-45.3 -46.1 92 -45 -45 опасность
обморожения
1026.1 914.3
09 16.12 штиль 0 20 км 8/0
[Cs]
-43.3 -44.1 92 -43 -43 опасность
обморожения
1025.5 914.6 -43.3
12 16.12 штиль 0 20 км слабый снег 10/0
[Cs]
-42.7 -43.4 93 -43 -43 опасность
обморожения
1025.4 914.8
15 16.12 штиль 0 20 км {снег} 8/0
[Cs]
-43.1 -43.4 97 -43 -43 опасность
обморожения
1024.9 914.2
18 16.12 штиль 0 20 км {снег} 8/0
[Cs]
-44.0 -44.8 92 -44 -44 опасность
обморожения
1025.0 913.9
21 16.12 штиль 0 20 км 4/0
[Cs]
-46.2 -46.5 97 -46 -46 опасность
обморожения
1027.3 915.0 -46.6 0.0 34
00 17.12 штиль 0 50 км ясно -48.0 -48.5 94 -48 -48 опасность
обморожения
1029.0 915.6 -48.2
03 17.12 штиль 0 50 км ясно -46.3 -47.0 92 -46 -46 опасность
обморожения
1027.6 915.2
06 17.12 штиль 0 50 км 6/0
[Cs]
-45.4 -46.1 93 -45 -45 опасность
обморожения
1028.0 916.0
09 17.12 штиль 0 20 км 6/0
[Cs]
-44.5 -45.3 92 -45 -45 опасность
обморожения
1027.2 915.6 -44.5
12 17.12 штиль 0 20 км 8/0
[Cs]
-44.2 -44.8 94 -44 -44 опасность
обморожения
1026.9 915.5
15 17.12 штиль 0 20 км 6/0
[Cs]
-43.7 -44.1 96 -44 -44 опасность
обморожения
1025.9 914.8
18 17.12 штиль 0 20 км 6/0
[Cs]
-43.5 -44.1 94 -44 -44 опасность
обморожения
1025.2 914.3
21 17.12 штиль 0 20 км 6/0
[Cs]
-42.9 -43.4 95 -43 -43 опасность
обморожения
1024.4 913.8 -44.5 34
00 18.12 штиль 0 50 км 6/0
[Cs]
-43.2 -43.4 98 -43 -43 опасность
обморожения
1023.9 913.4
03 18.12 штиль 0 50 км 10/0
[Cs]
-42.4 -43.3 91 -42 -42 опасность
обморожения
1023.5 913.4
06 18.12 штиль 0 50 км 6/0
[Cs]
-44.0 -45.3 87 -44 -44 опасность
обморожения
1023.6 912.6
09 18.12 штиль 0 20 км 4/0
[Cs]
-46.8 -47.9 88 -47 -47 опасность
обморожения
1025.1 912.7 -42.4
12 18.12 штиль 0 20 км 4/0
[Cs]
-47.4 -47.5 99 -47 -47 опасность
обморожения
1025.5 912.8
15 18.12 штиль 0 20 км 4/0
[Cs]
-47.0 -47.5 95 -47 -47 опасность
обморожения
1025.6 913.1
18 18.12 штиль 0 20 км 4/0
[Cs]
-47.8 -48.5 92 -48 -48 опасность
обморожения
1025.7 912.8

 

Местоположение метеостанции Агаякан (Якутия, Россия): широта 63.33 долгота 141.70 высота над уровнем моря 777 м.

В архиве по умолчанию представлена погода в Агаякане за последнюю неделю. Архивные данные за месяц целиком и за предыдущие месяцы, начиная с января 2011 года, Вы можете получить, выбрав интересующий диапазон дат из раскрывающегося списка и нажав кнопку "Ввод!".


*Определитесь, кто Вы:
робот инопланетянин человек

Внимание! Время в таблицах - всемирное. Для получения местного времени необходимо прибавить поправку, которая в Агаякане равна 10 ч.

Смотрите также архив погоды в соседних городах и на ближайших метеорологических станциях:

Погода в Оймяконе (Якутия, Россия) (71 км)
Погода в Юртах (Якутия, Россия) (80 км)
Погода в Восточной (Якутия, Россия) (106 км)
Погода в Усть-Нере (Якутия, Россия) (150 км)
Погода в Делянкире (Якутия, Россия) (201 км)
Погода в Теплом Ключе (Якутия, Россия) (254 км)
Погода в Уеге (Хабаровский край, Россия) (295 км)
Погода в Томпо (Якутия, Россия) (299 км)
Погода в Сусумане (Магаданская область, Россия) (328 км)
Погода в Колымской (Магаданская область, Россия) (344 км)

Пояснения к столбцам:

Ветер - указаны скорость ветра в м/с - средняя за 10 мин, порывы в срок и между сроками (в фигурных скобках) и направление, откуда дует ветер: С - северный, СВ - северо-восточный, В - восточный, ЮВ - юго-восточный, Ю - южный, ЮЗ - юго-западный, З - западный, СЗ - северо-западный.
Видимость - горизонтальная дальность видимости в метрах или километрах. При видимости от 1 до 10 км при отсутствии осадков обычно наблюдается дымка, при ухудшении видимости до 1 км и менее - туман. В сухую погоду видимость может ухудшаться дымом, пылью или мглою.
Явления - указаны атмосферные явления, наблюдавшиеся в срок или в последний час перед сроком; фигурными скобками обозначены явления, наблюдавшиеся между сроками (за 1-3 часа до срока); квадратными скобками обозначены град или гололедные отложения с указанием их диаметра в мм.
Облачность - указаны через наклонную черту общая и нижняя облачность в баллах и высота нижней границы облаков в метрах; квадратными скобками обозначены формы облаков: Ci - перистые, Cs - перисто-слоистые, Cc - перисто-кучевые, Ac - высококучевые, As - высокослоистые, Sc - слоисто-кучевые, Ns - слоисто-дождевые, Cu - кучевые, Cb - кучево-дождевые. Подробнее классификацию облаков см. в Атласе облаков (PDF).
T - Температура воздуха - температура, измеренная на высоте 2 м над землей.
Td - Температура точки росы - температура, при понижении до которой содержащийся в воздухе водяной пар достигнет насыщения.
f - Относительная влажность воздуха - влажноcть воздуха, измеренная на высоте 2 м над землей.
Te - Эффективная температура - температура, которую ощущает одетый по сезону человек в тени. Характеристика душности погоды. При расчете учитывается влияние влажности воздуха и скорости ветра на теплоощущения человека.
Tes - Эффективная температура на солнце - температура, которую ощущает человек, с поправкой на солнечный нагрев. Характеристика знойности погоды. Зависит от высоты солнца над горизонтом, облачности и скорости ветра. Ночью, в пасмурную погоду, а также при ветре 12 м/с и более поправка равна нулю.
P - Атмосферное давление - приведенное к уровню моря атмосферное давление.
Po - Атмосферное давление - измеренное на уровне метеостанции атмосферное давление.
Tmin - Минимальная температура - минимум температуры воздуха на высоте 2 м над землей.
Tmax - Максимальная температура - максимум температуры воздуха на высоте 2 м над землей.
R - Количество осадков - Количество выпавших осадков за период времени, мм. При наведении курсора мыши на число - период времени, за который выпало указанное количество осадков.
R24 - Количество осадков - Количество выпавших осадков за 24 часа, мм.
S - Снежный покров - Высота снежного покрова, см. При наведении курсора мыши на число - состояние снежного покрова и степень покрытия местности в баллах.